Tracking 35275 objects as of 8-Sep-2026
HD Live streaming from Space Station
objects crossing your sky now

SL-14 R/B

Track SL-14 R/B now!
10-day predictions


NORAD ID: 21233
Int'l Code: 1991-030B
Launch date: April 24, 1991
Source: Commonwealth of Independent States (former USSR) (CIS)
Launch site: PLESETSK MISSILE AND SPACE COMPLEX (PKMTR)

Note: This is a ROCKET BODY
Your satellite tracking list
Your tracking list is empty




NASA's NSSDC Master Catalog

Two Line Element Set (TLE):
1 21233U 91030B   26250.75904275  .00000228  00000-0  56466-3 0  9990
2 21233  82.5479 134.9185 0016629 342.6935  78.4241 13.16390348699610
Source of the keplerian elements: AFSPC